Tracking 17857 objects as of 30-September-2016
HD Live streaming from Space Station
objects crossing your sky now

BREEZE-M DEB

Track BREEZE-M DEB now!
10-day predictions


NORAD ID: 34250
Int'l Code: 2006-006BR
Perigee: 467.3 km
Apogee: 14,772.4 km
Inclination: 51.7 °
Period: 274.5 minutes
Semi major axis: 13990 km
RCS: 0.0694 m2 (small)
Launch date: February 28, 2006
Source: Commonwealth of Independent States (former USSR) (CIS)
Launch site: TYURATAM MISSILE AND SPACE COMPLEX (TTMTR)

Note: This is SATELLITE DEBRIS
Your satellite tracking list
Your tracking list is empty





NASA's NSSDC Master Catalog

Two Line Element Set (TLE):
1 34250U 06006BR  16272.25408263  .00000576  00000-0  67148-3 0  9991
2 34250  51.6760 229.4204 5112323 255.3231  44.8457  5.24613034168366
Source of the keplerian elements: AFSPC

N2YO: 1272